Wind_Speed
6 10 9 9 7 8 17 5 8 5 6 5 8 8 18 19 11 6 10 9 9 7 8 1 1 2 2 3 4 4 5 4 4 5 5 4 4 5 4 4 3 2 2 3 3 5 6 6 7
5 9 10 12 9 13 11 12 10 12 14 11 11 9 14 18 18 17 8 10 9 4 4 4 2 0 1 3 4 4 5 4 4 4 4 4 5 6 6 5 5 4 4 4 4 5 7 7 8
5 8 13 10 13 14 5 7 10 12 14 10 5 10 8 12 10 11 9 8 10 7 4 4 2 1 1 2 2 3 4 4 4 4 4 5 6 7 8 8 8 7 6 7 7 7 7 8 8
5 7 10 10 17 4 7 2 13 15 9 8 14 10 9 5 7 14 10 10 10 7 3 5 4 3 3 3 3 3 3 4 4 5 6 7 8 8 9 9 10 9 9 9 9 9 9 9 9
7 11 11 14 17 5 1 1 14 13 12 12 13 9 10 8 18 17 10 10 8 6 6 6 7 7 5 4 5 5 7 7 7 7 8 8 9 10 10 11 11 11 11 11 11 11 12 11 10
15 8 11 13 15 6 4 6 12 14 10 9 6 14 9 12 16 14 12 9 6 5 5 6 6 6 6 5 5 5 6 6 7 9 9 10 10 11 12 12 13 13 13 13 13 14 14 14 13
14 11 15 17 12 5 7 6 11 12 11 11 12 11 11 13 17 15 12 9 6 4 5 5 5 4 4 5 5 6 6 7 8 8 9 10 11 12 13 14 15 15 16 16 15 15 16 16 15
11 9 18 11 13 9 8 9 12 13 12 8 10 6 11 19 18 15 13 10 9 7 6 5 4 3 3 5 6 8 9 9 10 11 11 12 11 13 11 12 15 17 18 19 19 18 18 18 17
9 9 13 14 8 5 10 9 7 3 10 7 3 2 16 23 21 17 14 11 10 9 8 6 3 1 3 5 6 7 8 10 12 13 14 15 15 15 14 14 17 18 19 20 21 20 21 21 20
10 11 16 11 9 8 7 13 14 9 13 6 10 14 20 23 21 19 15 13 10 8 8 7 4 2 3 4 5 7 9 10 11 12 12 12 13 16 15 16 16 15 16 18 20 21 22 24 23
9 12 9 6 7 9 8 12 12 16 14 16 16 19 22 22 20 17 14 12 9 7 8 7 4 3 2 4 6 8 9 10 11 12 11 11 11 13 14 15 11 15 15 14 16 14 20 16 16
11 15 10 11 4 10 12 12 10 15 2 4 17 19 21 20 18 16 13 11 9 6 6 6 4 4 0 5 9 11 12 13 13 12 12 12 11 12 13 13 15 15 12 16 15 20 19 19 19
15 15 11 12 11 13 13 12 12 16 4 6 18 20 19 19 18 15 13 11 9 6 7 7 6 4 3 5 9 12 13 14 14 13 15 14 12 13 13 14 14 14 14 14 15 17 23 27 23
14 11 14 15 16 16 15 17 13 17 8 12 19 20 19 19 18 16 13 11 8 6 8 9 8 5 4 5 8 12 14 14 13 12 16 17 15 16 16 14 13 12 13 15 20 21 23 25 30
13 14 15 19 20 16 16 19 21 24 16 18 19 19 20 20 18 16 13 11 8 7 9 8 7 5 5 6 8 10 12 13 12 12 15 16 17 16 15 14 14 13 17 17 15 16 16 18 20
16 16 16 15 18 17 14 18 21 23 21 21 21 22 22 21 19 17 14 11 9 7 8 8 6 5 5 6 8 9 12 12 11 12 12 15 16 16 15 14 14 17 17 15 15 15 15 15 17
16 15 16 14 12 10 13 16 16 18 22 21 21 21 22 22 20 17 14 12 9 9 7 7 7 6 6 7 8 10 11 9 10 10 11 16 16 16 15 13 14 17 15 14 15 16 18 19 19
13 13 10 13 6 8 15 18 17 16 18 20 23 23 22 22 21 17 14 11 9 8 8 7 6 6 6 6 7 5 6 8 9 9 11 16 15 17 16 13 14 16 14 14 16 19 19 20 20
14 13 17 15 11 5 15 17 17 17 20 19 22 25 25 25 21 18 15 11 9 7 5 7 6 6 4 3 5 5 7 9 9 9 14 15 16 17 17 14 15 15 15 17 18 19 21 21 21
15 16 17 16 16 9 14 19 20 21 20 22 24 26 28 26 24 19 15 12 10 7 6 3 3 4 3 3 5 7 9 9 9 9 14 13 16 16 15 16 17 16 18 18 17 20 22 21 18
16 17 16 16 16 14 19 23 21 25 27 20 26 27 28 29 28 22 17 14 10 8 5 4 3 3 5 4 5 7 7 8 8 11 11 13 14 15 16 16 18 19 19 18 20 19 18 20 21
17 16 15 16 15 14 6 15 19 15 17 17 24 25 25 27 26 22 19 15 11 8 7 5 3 1 4 5 6 8 8 9 11 11 12 15 14 16 16 17 19 20 20 20 20 20 19 20 22
20 13 13 16 18 19 22 14 15 18 17 16 18 23 23 25 25 22 19 15 11 8 6 5 2 0 3 5 6 7 8 9 11 12 15 14 15 15 16 17 18 20 21 21 21 22 21 21 22
11 8 15 15 14 17 18 17 21 14 10 19 19 21 23 24 23 20 17 14 11 7 6 5 4 2 3 4 6 7 9 10 11 13 14 14 16 16 16 19 21 20 21 22 22 24 24 23 24
11 11 11 14 13 18 15 19 19 8 6 5 4 17 21 21 21 20 17 14 11 8 6 5 4 2 2 4 5 7 8 10 10 12 13 16 16 16 17 21 22 23 23 23 22 23 25 25 25
14 15 10 12 15 18 18 15 10 8 9 8 3 10 20 21 21 20 17 15 11 8 6 5 3 2 2 4 6 7 9 8 10 12 13 14 16 17 20 21 22 24 24 24 24 25 24 25 27
18 17 17 18 20 14 18 22 10 8 9 8 10 11 17 20 20 19 17 15 12 8 6 4 3 2 3 5 6 7 8 9 11 13 13 13 16 18 20 22 22 24 24 24 24 26 27 27 28
15 6 5 5 5 11 16 19 17 10 12 8 11 15 17 18 19 19 17 15 12 9 6 3 2 2 3 5 6 6 6 8 10 12 13 15 16 19 20 21 22 23 24 23 22 25 26 29 27
8 12 14 10 5 10 14 13 9 9 4 10 8 12 16 19 19 19 17 14 11 8 5 3 2 2 3 5 7 8 10 11 11 11 14 15 17 18 20 21 22 23 23 23 24 24 26 27 29
13 16 19 12 14 9 15 19 17 7 4 5 9 10 13 17 18 18 17 14 10 7 5 2 2 2 4 6 8 8 10 13 13 13 16 16 16 18 20 21 22 22 23 23 24 26 26 28 32
Wind_Direction
327 320 299 273 243 231 262 183 28 154 119 353 50 18 64 39 17 61 108 89 97 129 89 141 155 186 188 197 205 202 211 209 200 199 204 216 230 240 253 259 261 302 314 284 273 267 263 265 272
320 292 277 270 254 254 242 100 210 109 98 110 103 119 85 75 80 108 108 132 134 120 99 88 113 205 226 226 224 221 223 232 233 229 230 245 251 253 254 259 261 265 286 285 272 265 268 271 275
313 277 274 241 245 263 32 161 114 102 146 139 109 90 96 100 53 111 119 128 90 91 75 71 43 336 294 260 246 246 249 252 255 261 269 267 267 268 268 267 266 269 270 279 280 276 273 274 276
279 237 248 254 260 237 348 97 125 157 162 160 138 105 94 44 129 130 119 108 97 79 52 43 26 353 334 325 313 302 294 290 285 282 277 274 270 266 265 269 270 273 274 276 280 280 278 277 277
263 256 260 241 256 88 320 199 161 170 153 154 159 126 107 98 135 127 121 125 111 104 80 63 53 43 26 359 332 324 318 312 306 296 289 283 277 273 266 261 261 266 272 277 279 281 280 275 274
264 258 256 256 235 130 229 189 196 191 151 151 175 132 107 143 146 153 150 140 147 117 99 87 73 65 55 40 22 358 339 323 310 303 297 292 290 284 279 271 266 263 261 267 275 279 279 278 274
256 279 269 287 293 158 199 210 214 209 169 182 155 156 134 150 163 162 158 156 167 158 120 101 88 70 37 9 357 346 336 324 314 308 305 304 302 296 292 286 278 272 270 267 267 272 276 277 276
273 279 266 261 265 246 123 211 221 221 190 129 173 168 168 168 163 163 157 166 180 164 143 122 104 76 25 342 332 322 316 313 308 301 297 295 296 294 309 307 284 274 271 270 271 271 271 273 274
268 266 261 255 234 266 132 202 212 300 134 178 148 44 148 156 153 154 151 156 167 163 153 145 140 46 355 347 343 334 325 314 304 298 294 287 283 290 278 271 268 275 277 275 273 271 273 273 272
258 275 277 17 349 299 174 225 183 213 179 168 141 125 142 155 160 163 161 156 153 162 168 166 167 148 100 59 29 7 352 337 327 318 312 301 295 287 289 287 286 289 287 282 287 287 281 274 273
275 265 348 299 283 266 232 237 171 220 194 189 176 156 157 161 167 169 168 164 163 168 176 177 180 151 92 48 17 4 351 343 335 327 318 312 311 304 298 296 299 283 285 296 277 281 282 291 270
271 266 283 288 262 265 255 238 199 237 310 162 168 169 165 169 173 173 170 166 156 155 185 191 197 195 230 358 355 351 350 346 345 336 330 320 313 307 304 304 301 300 297 279 295 261 252 253 253
258 269 262 266 254 252 259 258 230 229 147 169 157 169 174 173 175 175 173 169 163 161 193 204 213 230 307 342 343 343 346 340 341 342 336 333 329 318 315 309 309 304 301 298 289 280 267 256 254
308 289 278 264 256 250 251 239 227 240 180 170 168 177 181 181 180 177 177 173 168 176 204 212 218 224 271 324 339 337 335 339 339 340 333 335 332 324 323 323 320 321 311 297 291 288 282 276 263
275 270 264 248 246 251 240 247 227 236 189 185 184 187 188 187 188 188 184 179 181 189 210 218 229 248 281 312 328 329 326 331 334 334 332 328 325 321 323 326 322 320 309 316 313 304 297 291 284
261 257 263 259 219 229 245 256 232 211 188 195 195 191 191 191 192 190 187 184 178 183 208 221 233 257 284 304 317 320 320 326 327 327 328 321 321 317 321 324 320 311 322 322 316 314 308 299 288
236 259 262 256 192 238 209 255 267 159 193 201 204 198 197 194 195 194 189 185 181 195 203 222 239 260 280 302 315 322 329 332 331 334 330 324 325 326 328 328 323 321 324 320 318 312 310 304 298
278 249 240 266 249 214 247 236 253 185 209 222 204 209 204 202 201 197 195 189 182 195 212 226 241 255 276 300 329 332 329 330 333 331 325 331 330 331 330 331 319 326 324 321 311 314 310 311 308
296 283 281 277 254 240 263 260 254 228 202 224 224 211 209 208 204 201 198 194 185 191 197 215 239 256 277 317 325 315 317 329 327 330 329 333 329 330 333 327 324 325 322 319 323 318 317 313 311
254 261 263 271 270 263 264 264 260 250 222 213 226 213 212 204 200 200 202 195 187 186 189 200 225 258 274 305 320 327 328 325 329 333 335 333 328 328 331 324 323 318 320 323 324 323 322 315 315
249 258 267 274 286 268 266 268 263 257 247 212 226 227 212 204 197 201 201 198 190 180 174 174 220 257 283 323 340 337 346 340 328 327 331 322 329 328 328 327 324 322 322 321 322 324 324 313 307
250 254 253 269 276 272 310 284 284 298 211 210 222 227 216 204 200 203 199 197 192 185 174 164 202 273 309 328 345 345 352 343 329 331 322 329 327 328 328 327 327 324 322 321 319 319 314 311 303
260 272 287 267 269 275 261 261 260 257 208 213 218 215 215 204 196 200 197 196 189 178 168 175 149 57 334 338 343 352 341 335 329 324 323 329 325 327 328 327 325 323 323 320 316 317 314 308 301
262 266 246 251 256 257 258 259 269 277 305 192 203 209 205 196 192 191 193 190 193 173 157 153 131 83 360 353 342 339 336 334 328 324 327 324 328 325 325 323 323 321 320 318 317 313 312 310 304
241 231 249 241 231 254 253 248 263 152 110 32 180 191 192 186 184 186 187 192 190 176 156 139 122 93 13 350 341 339 337 337 328 326 320 323 323 323 324 324 320 319 318 316 316 313 308 308 305
215 235 237 262 256 269 289 253 266 53 106 134 139 186 177 181 182 188 193 191 191 174 152 129 108 76 11 355 348 345 339 334 332 320 320 322 319 321 319 320 320 319 317 316 314 310 309 309 306
243 242 235 258 267 273 267 274 256 162 151 157 163 168 173 180 186 190 187 188 184 173 154 148 111 68 9 357 349 346 340 332 327 327 326 317 322 320 320 319 320 317 316 315 311 310 311 310 309
239 248 232 232 244 250 253 252 258 210 172 164 151 163 171 179 184 185 185 185 180 166 155 136 99 48 7 349 341 337 332 330 326 329 328 325 323 324 320 319 319 317 317 315 313 309 310 307 310
203 236 241 237 244 270 269 270 39 48 39 166 162 171 176 181 182 182 186 183 175 159 148 117 83 35 353 344 340 337 331 330 334 332 328 328 326 325 322 320 320 319 318 318 314 312 310 308 305
284 211 250 236 231 233 253 260 295 134 95 140 157 176 179 180 181 182 182 176 169 158 138 117 62 17 348 346 345 344 338 335 336 330 326 329 331 326 323 324 322 322 321 321 319 317 313 307 307
Height
1506 1505 1506 1505 1499 1477 1464 1461 1458 1468 1474 1480 1479 1480 1486 1488 1490 1506 1520 1521 1521 1520 1520 1519 1520 1520 1520 1521 1522 1521 1522 1521 1521 1522 1522 1521 1522 1522 1521 1521 1520 1519 1518 1518 1517 1517 1515 1515 1515
1505 1507 1505 1497 1490 1473 1455 1455 1470 1468 1482 1486 1487 1488 1491 1500 1505 1514 1519 1519 1520 1520 1521 1520 1521 1521 1522 1522 1522 1522 1522 1522 1522 1522 1521 1521 1522 1522 1521 1520 1520 1519 1518 1518 1516 1515 1515 1515 1514
1504 1506 1502 1484 1476 1471 1460 1461 1464 1481 1487 1487 1491 1491 1499 1506 1511 1514 1518 1521 1523 1521 1521 1521 1521 1522 1522 1522 1522 1522 1522 1522 1522 1522 1521 1521 1521 1521 1520 1519 1519 1518 1517 1517 1516 1515 1514 1514 1513
1507 1504 1498 1488 1475 1459 1465 1468 1472 1485 1487 1487 1490 1499 1508 1511 1512 1515 1519 1523 1524 1522 1522 1522 1522 1523 1523 1523 1523 1522 1522 1522 1522 1521 1520 1520 1520 1520 1520 1519 1519 1517 1517 1516 1515 1514 1513 1512 1511
1506 1498 1488 1478 1470 1461 1472 1475 1476 1482 1485 1488 1490 1498 1506 1511 1512 1516 1520 1522 1523 1522 1522 1523 1524 1523 1524 1523 1523 1523 1523 1522 1521 1521 1520 1520 1519 1519 1518 1517 1517 1516 1515 1515 1514 1513 1512 1511 1510
1501 1492 1485 1477 1462 1464 1476 1480 1479 1480 1485 1490 1493 1499 1509 1511 1513 1516 1519 1521 1522 1523 1523 1524 1524 1523 1523 1523 1523 1523 1523 1522 1521 1520 1520 1519 1518 1518 1517 1516 1515 1514 1514 1513 1513 1512 1511 1510 1509
1499 1485 1482 1469 1465 1467 1475 1484 1482 1481 1487 1490 1491 1496 1510 1513 1513 1516 1519 1521 1522 1523 1524 1524 1523 1523 1523 1523 1523 1523 1522 1521 1520 1519 1519 1518 1517 1516 1516 1515 1514 1513 1512 1511 1511 1510 1509 1509 1508
1500 1490 1483 1473 1471 1470 1476 1486 1485 1485 1486 1492 1493 1496 1506 1510 1512 1516 1519 1521 1522 1523 1524 1524 1524 1523 1523 1522 1522 1522 1521 1520 1519 1518 1517 1516 1515 1514 1513 1513 1510 1510 1510 1509 1509 1508 1507 1506 1506
1500 1492 1480 1468 1470 1471 1480 1484 1489 1489 1489 1496 1499 1498 1501 1506 1512 1518 1520 1521 1522 1523 1523 1523 1523 1523 1522 1522 1521 1520 1519 1518 1517 1516 1515 1514 1513 1512 1511 1509 1509 1508 1507 1506 1506 1506 1505 1504 1503
1496 1484 1475 1475 1474 1477 1479 1481 1487 1493 1492 1500 1503 1503 1505 1508 1512 1516 1519 1521 1522 1523 1522 1522 1522 1522 1521 1521 1521 1519 1518 1517 1515 1514 1513 1511 1510 1509 1508 1507 1507 1506 1504 1503 1503 1503 1503 1501 1500
1488 1487 1478 1481 1485 1486 1484 1482 1483 1488 1486 1494 1501 1503 1506 1509 1513 1516 1518 1520 1522 1521 1521 1521 1521 1521 1521 1521 1520 1518 1517 1515 1513 1511 1510 1509 1508 1506 1506 1505 1504 1502 1502 1502 1500 1500 1499 1499 1500
1494 1485 1487 1485 1489 1489 1484 1482 1481 1487 1485 1488 1495 1504 1506 1509 1512 1516 1519 1520 1521 1522 1520 1520 1520 1520 1520 1519 1519 1518 1516 1514 1511 1509 1508 1506 1505 1504 1503 1502 1501 1499 1499 1498 1497 1496 1495 1495 1494
1490 1486 1485 1489 1489 1489 1487 1483 1485 1485 1490 1493 1496 1502 1505 1508 1512 1515 1518 1519 1520 1520 1519 1519 1518 1518 1519 1518 1517 1517 1515 1513 1510 1508 1506 1504 1502 1501 1500 1498 1497 1496 1495 1495 1493 1492 1490 1490 1490
1487 1490 1486 1485 1485 1485 1488 1484 1484 1485 1490 1494 1496 1500 1503 1507 1511 1514 1516 1517 1518 1518 1517 1517 1517 1517 1517 1517 1517 1516 1514 1512 1510 1508 1504 1502 1500 1499 1497 1495 1494 1494 1492 1489 1487 1486 1485 1484 1484
1494 1489 1483 1480 1480 1480 1482 1481 1476 1482 1488 1493 1495 1498 1501 1505 1509 1512 1514 1515 1515 1516 1515 1516 1516 1516 1516 1516 1515 1514 1513 1511 1509 1507 1504 1501 1499 1496 1495 1494 1492 1491 1487 1485 1484 1482 1482 1481 1480
1492 1483 1480 1467 1467 1474 1480 1478 1469 1475 1484 1489 1492 1493 1498 1502 1506 1509 1511 1512 1513 1514 1513 1514 1514 1514 1515 1514 1513 1513 1511 1510 1508 1506 1504 1501 1499 1496 1494 1492 1491 1487 1485 1484 1481 1479 1477 1477 1476
1478 1481 1468 1462 1467 1471 1476 1475 1463 1471 1479 1483 1489 1491 1495 1500 1504 1506 1508 1509 1510 1510 1510 1511 1511 1512 1512 1512 1511 1510 1509 1509 1507 1505 1503 1499 1497 1495 1492 1491 1489 1485 1483 1482 1479 1476 1472 1470 1469
1468 1466 1468 1471 1463 1471 1471 1470 1464 1472 1476 1478 1482 1487 1492 1498 1503 1505 1508 1507 1508 1507 1507 1508 1510 1510 1510 1510 1509 1510 1510 1507 1505 1504 1501 1497 1495 1492 1490 1489 1487 1483 1481 1479 1475 1471 1469 1466 1463
1473 1476 1473 1465 1460 1471 1471 1466 1460 1460 1468 1474 1474 1481 1486 1492 1499 1503 1505 1506 1506 1505 1506 1507 1508 1508 1509 1509 1508 1508 1506 1504 1504 1502 1498 1496 1494 1491 1489 1488 1484 1481 1478 1475 1472 1468 1466 1464 1461
1477 1478 1474 1466 1461 1462 1465 1462 1456 1454 1453 1463 1468 1471 1477 1486 1494 1500 1503 1504 1505 1504 1505 1507 1506 1506 1507 1506 1505 1504 1503 1502 1502 1501 1497 1496 1492 1490 1488 1485 1482 1479 1474 1472 1470 1466 1463 1461 1462
1474 1474 1470 1469 1463 1464 1466 1461 1456 1447 1445 1451 1461 1463 1469 1478 1487 1496 1500 1502 1503 1503 1504 1505 1505 1505 1504 1504 1504 1503 1503 1503 1502 1499 1498 1495 1492 1489 1486 1483 1479 1475 1472 1469 1466 1464 1462 1460 1459
1472 1464 1465 1471 1470 1466 1454 1455 1438 1430 1431 1445 1454 1460 1464 1473 1483 1492 1496 1499 1502 1501 1500 1501 1502 1503 1502 1502 1501 1500 1500 1500 1498 1498 1497 1493 1491 1487 1484 1481 1477 1473 1470 1466 1463 1462 1460 1458 1456
1465 1463 1467 1468 1466 1461 1451 1451 1434 1426 1432 1445 1449 1455 1462 1470 1480 1489 1494 1497 1499 1499 1499 1499 1500 1500 1499 1499 1499 1498 1498 1498 1497 1496 1493 1492 1489 1486 1483 1479 1475 1471 1467 1463 1460 1458 1456 1455 1452
1463 1470 1469 1466 1463 1464 1450 1450 1426 1425 1420 1428 1442 1453 1459 1466 1476 1486 1492 1495 1498 1497 1496 1497 1498 1498 1497 1498 1498 1496 1495 1495 1495 1494 1492 1489 1486 1484 1481 1476 1472 1467 1463 1460 1456 1454 1452 1450 1449
1468 1472 1474 1468 1465 1453 1435 1437 1416 1424 1430 1434 1439 1448 1457 1466 1475 1483 1490 1495 1497 1497 1495 1495 1496 1497 1496 1496 1496 1494 1494 1493 1493 1492 1490 1486 1484 1481 1478 1473 1468 1463 1460 1457 1453 1450 1448 1446 1443
1464 1468 1472 1469 1456 1444 1423 1428 1420 1424 1434 1441 1446 1446 1456 1466 1474 1480 1486 1491 1494 1495 1494 1493 1494 1496 1496 1495 1494 1493 1492 1492 1491 1489 1487 1485 1482 1478 1473 1469 1464 1460 1456 1452 1448 1445 1443 1441 1437
1461 1461 1458 1464 1457 1461 1441 1426 1414 1428 1433 1439 1444 1449 1457 1465 1472 1478 1483 1487 1490 1492 1491 1490 1491 1493 1493 1492 1491 1491 1490 1489 1488 1485 1483 1482 1479 1475 1471 1466 1460 1455 1452 1448 1445 1442 1438 1434 1431
1455 1456 1473 1478 1475 1463 1435 1429 1422 1421 1430 1439 1444 1449 1458 1465 1471 1476 1481 1485 1487 1487 1487 1487 1488 1490 1490 1489 1488 1488 1487 1484 1483 1480 1478 1476 1474 1471 1467 1462 1457 1451 1447 1444 1440 1437 1434 1429 1425
1458 1461 1458 1460 1472 1457 1452 1433 1423 1430 1431 1437 1443 1452 1458 1463 1470 1475 1480 1484 1485 1485 1486 1486 1486 1488 1487 1487 1485 1485 1483 1480 1477 1475 1472 1470 1468 1466 1463 1458 1453 1447 1443 1439 1436 1433 1428 1425 1419
1448 1459 1461 1460 1463 1458 1453 1434 1422 1433 1438 1441 1444 1451 1457 1463 1468 1474 1478 1481 1483 1484 1485 1485 1485 1485 1484 1483 1482 1482 1480 1478 1476 1473 1467 1464 1463 1462 1459 1454 1450 1444 1438 1434 1430 1428 1424 1418 1413